G7TKI-13 Weather Reports


Display with metric or nautical units.
time (UTC)temp
F
wind
direction
speed
MPH
gust
MPH
rain 1hr
in
rain 24hr
in
rain mn
in
humidity
%
barometer
mb
20260506084254 50 31 2.0 4.0 0.00 0.00 0.00 77 1016.3
20260506083249 49 16 4.0 7.0 0.00 0.00 0.00 79 1016.4
20260506082220 50 329 3.0 4.0 0.00 0.00 0.00 78 1016.5
20260506081212 48 337 2.0 2.0 0.00 0.00 0.00 81 1016.5
20260506080204 48 321 3.0 6.0 0.00 0.00 0.00 81 1016.5
20260506073139 47 2 3.0 3.0 0.00 0.00 0.00 83 1016.3
20260506072137 46 100 2.0 2.0 0.00 0.00 0.00 84 1016.2
20260506071135 46 37 2.0 3.0 0.00 0.00 0.00 85 1016.1
20260506070152 45 30 3.0 6.0 0.00 0.00 0.00 86 1016.1
20260506062101 43 49 2.0 3.0 0.00 0.00 0.00 89 1016.2
20260506061113 43 9 2.0 3.0 0.00 0.00 0.00 91 1016.1
20260506051020 42 32 1.0 2.0 0.00 0.00 0.00 92 1015.7
20260506044521 42 40 1.0 1.0 0.00 0.00 0.00 91 1016.0
20260506043512 42 26 0.0 1.0 0.00 0.00 0.00 91 1015.7
20260506042444 42 41 1.0 2.0 0.00 0.00 0.00 90 1015.8
20260506041437 43 0.0 0.0 0.00 0.00 0.00 89 1015.8
20260506040456 43 15 2.0 3.0 0.00 0.00 0.00 89 1015.7
20260506035454 44 6 1.0 1.0 0.00 0.00 0.00 88 1015.7
20260506034429 45 11 2.0 2.0 0.00 0.00 0.00 87 1015.7
20260506033421 45 0 1.0 2.0 0.00 0.00 0.00 87 1015.7
20260506032413 46 39 1.0 1.0 0.00 0.00 0.00 87 1015.8
20260506031425 46 351 2.0 3.0 0.00 0.00 0.00 87 1015.9
20260506030356 46 6 1.0 2.0 0.00 0.00 0.00 86 1016.1
20260506025341 46 7 1.0 1.0 0.00 0.00 0.00 86 1015.9
20260506024340 46 5 3.0 6.0 0.00 0.00 0.00 85 1016.1
20260506023337 47 333 2.0 2.0 0.00 0.00 0.00 84 1016.3
20260506022336 47 16 1.0 1.0 0.00 0.00 0.00 83 1016.2
20260506021332 47 31 0.0 1.0 0.00 0.00 0.00 83 1016.2
20260506020341 47 0.0 0.0 0.00 0.00 0.00 83 1016.4
20260506015316 47 63 2.0 4.0 0.00 0.00 0.00 83 1016.4
20260506014308 47 35 1.0 2.0 0.00 0.00 0.00 84 1016.5
20260506013301 48 33 2.0 3.0 0.00 0.00 0.00 85 1016.3
20260506012250 48 33 1.0 1.0 0.00 0.00 0.00 85 1016.6
20260506011256 48 37 1.0 1.0 0.00 0.00 0.00 85 1016.4
20260506010234 48 355 1.0 2.0 0.00 0.00 0.00 86 1016.5
20260506005249 48 23 1.0 1.0 0.00 0.00 0.00 87 1016.5
20260506004221 48 355 1.0 1.0 0.00 0.00 0.00 87 1016.5
20260506003212 48 0.0 0.0 0.00 0.00 0.00 86 1016.5
20260506002158 48 16 1.0 1.0 0.00 0.00 0.00 86 1016.6
20260506001256 48 336 1.0 1.0 0.00 0.00 0.00 86 1016.6
20260506000148 48 55 1.0 2.0 0.00 0.00 0.00 86 1016.7
20260505235140 48 346 1.0 1.0 0.00 0.00 0.00 86 1016.6
20260505234137 48 0.0 0.0 0.00 0.00 0.00 86 1016.7
20260505233136 48 17 1.0 1.0 0.00 0.00 0.00 86 1016.9
20260505232133 48 343 1.0 1.0 0.00 0.00 0.00 86 1016.9
20260505231121 48 324 1.0 1.0 0.00 0.00 0.00 86 1016.8
20260505230116 48 12 0.0 1.0 0.00 0.00 0.00 86 1017.1
20260505225108 48 358 2.0 3.0 0.00 0.00 0.00 85 1016.9
20260505224100 49 36 1.0 1.0 0.00 0.00 0.00 85 1016.8
20260505223106 49 9 4.0 6.0 0.00 0.00 0.00 85 1017.0
20260505222044 49 359 0.0 1.0 0.00 0.00 0.00 85 1016.9
20260505221035 49 27 1.0 2.0 0.00 0.00 0.00 84 1016.9
20260505220029 49 337 3.0 4.0 0.00 0.00 0.00 84 1017.0
20260505215020 49 78 1.0 2.0 0.00 0.00 0.00 84 1016.9
20260505214012 50 29 3.0 4.0 0.00 0.00 0.00 84 1016.7
20260505213004 50 343 1.0 2.0 0.00 0.00 0.00 83 1016.6
20260505212014 50 342 3.0 8.0 0.00 0.00 0.00 83 1016.7
20260505210948 51 23 1.0 2.0 0.00 0.00 0.00 83 1016.7
20260505205956 51 326 2.0 2.0 0.00 0.00 0.00 82 1016.7
20260505204932 51 1 2.0 2.0 0.00 0.00 0.00 83 1016.6
20260505203944 51 18 1.0 2.0 0.00 0.00 0.00 88 1016.7
20260505202852 51 321 1.0 1.0 0.00 0.00 0.00 90 1016.4
20260505201850 51 358 1.0 2.0 0.00 0.00 0.00 90 1016.5
20260505200857 51 344 1.0 2.0 0.00 0.00 0.00 90 1016.4
20260505195835 51 0.0 0.0 0.00 0.00 0.00 89 1016.3
20260505194828 51 47 1.0 1.0 0.00 0.00 0.00 88 1016.1
20260505193820 52 59 2.0 2.0 0.00 0.00 0.00 87 1016.2
20260505192833 52 347 1.0 1.0 0.00 0.00 0.00 85 1015.9
20260505191805 53 55 1.0 2.0 0.00 0.00 0.00 81 1015.8
20260505190753 54 357 1.0 1.0 0.00 0.00 0.00 79 1015.7
20260505185748 54 48 1.0 1.0 0.00 0.00 0.00 77 1015.7
20260505184740 55 24 2.0 2.0 0.00 0.00 0.00 72 1015.6
20260505183738 55 0.0 0.0 0.00 0.00 0.00 73 1015.5
20260505182736 55 0.0 0.0 0.00 0.00 0.00 73 1015.4
20260505181753 55 0.0 0.0 0.00 0.00 0.00 78 1015.3
20260505180741 55 0.0 0.0 0.00 0.00 0.00 78 1015.2
20260505175716 55 0.0 0.0 0.00 0.00 0.00 77 1015.2
20260505174728 55 0.0 0.0 0.00 0.00 0.00 77 1015.2
20260505173700 55 0.0 0.0 0.00 0.00 0.00 76 1015.2
20260505172707 56 0.0 0.0 0.00 0.00 0.00 75 1015.3
20260505171644 56 0.0 0.0 0.00 0.00 0.00 75 1015.2
20260505170636 56 143 0.0 1.0 0.00 0.00 0.00 74 1015.3
20260505165634 56 0.0 0.0 0.00 0.00 0.00 73 1015.2
20260505164455 0 0.0 0.0 0.00 0.00 0.00 1015.2
20260505163335 57 0.0 0.0 0.00 0.00 0.00 72 1015.3
20260505162235 58 0.0 0.0 0.00 0.00 0.00 70 1015.2
20260505161035 58 88 1.0 2.0 0.00 0.00 0.00 66 1015.4
20260505152836 60 130 1.0 2.0 0.00 0.00 0.00 64 1015.6
20260505151855 60 0.0 0.0 0.00 0.00 0.00 63 1015.3
20260505150734 59 139 1.0 1.0 0.00 0.00 0.00 64 1015.5
20260505124549 66 47 0.0 1.0 0.00 0.01 0.00 49 1015.8
20260505123538 66 24 1.0 2.0 0.00 0.01 0.00 49 1015.8
20260505122535 66 12 1.0 1.0 0.00 0.01 0.00 48 1015.7
20260505121522 66 0.0 0.0 0.00 0.01 0.00 51 1015.7
20260505120516 67 45 2.0 2.0 0.00 0.01 0.00 50 1015.9
20260505115508 66 0.0 0.0 0.00 0.01 0.00 52 1015.8
20260505114434 63 345 1.0 3.0 0.00 0.01 0.00 55 1015.8
20260505113334 63 341 3.0 6.0 0.00 0.01 0.00 54 1016.0
20260505112308 62 346 1.0 1.0 0.00 0.01 0.00 55 1016.1
20260505111301 64 0.0 0.0 0.00 0.01 0.00 54 1016.0
20260505110244 62 309 2.0 3.0 0.00 0.01 0.00 56 1016.3
20260505102221 63 4 4.0 6.0 0.00 0.01 0.00 54 1016.6
20260505101253 59 0.0 0.0 0.00 0.01 0.00 60 1016.6
20260505100146 60 312 0.0 1.0 0.00 0.01 0.00 60 1016.6
20260505095138 61 25 1.0 2.0 0.00 0.01 0.00 57 1016.6
20260505094136 60 41 1.0 1.0 0.00 0.01 0.00 57 1016.7
20260505093122 58 15 1.0 2.0 0.00 0.01 0.00 60 1016.9
20260505092116 59 0.0 0.0 0.00 0.01 0.00 63 1016.8
20260505091108 56 23 2.0 2.0 0.00 0.01 0.00 65 1016.8
20260505090121 59 338 4.0 6.0 0.00 0.01 0.00 66 1016.6
20260505085050 58 41 1.0 2.0 0.00 0.01 0.00 71 1016.7